Temp_Advection
nan nan nan nan nan nan nan nan nan nan nan nan nan nan nan nan nan nan nan nan nan nan nan nan nan nan nan nan nan nan nan nan nan nan nan nan nan nan nan nan nan nan nan nan
nan 0 0 -0 0 0 0 0 0 0 1 0 0 0 0 0 1 1 1 0 0 0 0 0 -0 0 -0 -0 0 0 0 0 0 0 0 0 0 0 0 0 0 -1 -0 nan
nan 0 -0 0 0 0 0 0 0 0 0 -0 0 0 0 1 -0 -0 -0 0 0 0 0 -0 0 1 -0 -0 -0 -0 0 -0 -0 -0 -0 -0 -0 -0 -0 -0 -0 -0 -1 nan
nan -0 0 0 0 0 -0 0 0 0 0 0 0 -0 0 0 -0 -0 0 0 -0 0 0 1 1 -0 -0 -0 -0 -0 -0 -0 0 -0 0 0 0 0 0 0 -0 -0 -0 nan
nan -0 0 0 0 0 0 -0 0 -0 -0 0 0 0 0 -0 -0 0 0 -0 -0 -0 0 -0 -0 -0 -0 -0 -0 -0 -0 -0 -0 -1 -0 0 0 -0 -0 -0 0 0 0 nan
nan 0 0 -0 0 0 0 -0 -0 -0 -0 0 0 -0 -0 -0 -0 -0 -0 0 0 -0 -0 -0 -0 -0 -0 -0 -0 0 -0 -0 0 -0 -0 -0 -0 -0 -0 0 -1 -0 -0 nan
nan 0 -0 0 0 0 -0 -0 -0 -0 0 0 0 -0 0 0 0 -0 -0 0 0 0 0 -0 -0 -0 -0 -0 -0 -0 -0 0 0 -0 0 0 -0 -0 -0 -0 -0 -0 -0 nan
nan 0 0 0 0 -0 0 0 0 -0 -0 0 -0 -0 -0 -0 -0 -0 -0 0 0 -0 -0 -0 0 0 -0 -0 -0 -0 0 0 -0 -0 -0 -0 -0 -0 -0 0 -0 0 0 nan
nan 0 0 0 0 0 0 0 0 0 -1 -0 0 -0 0 -0 0 0 -0 -0 0 0 -0 -0 0 -0 -0 -0 0 0 -0 -0 -0 0 -0 0 -0 -0 -0 0 -0 0 -0 nan
nan 0 0 0 0 -0 0 0 0 0 0 -0 0 -0 -0 -0 -0 0 0 0 0 0 -0 -0 -0 -0 0 0 0 0 0 0 0 0 0 0 -0 -0 0 0 -0 -0 0 nan
nan 0 0 0 0 0 0 -0 -0 0 0 0 0 -0 -0 0 -0 -0 0 -0 0 -0 0 0 0 0 0 0 -0 0 0 0 0 0 0 -0 -0 -0 -0 -0 0 -0 -0 nan
nan 0 0 0 0 0 0 0 0 0 0 0 0 0 0 0 0 -0 -0 0 -0 -0 -0 -0 0 0 0 0 -0 -0 -0 0 0 0 -0 0 -0 0 0 -0 0 -0 -0 nan
nan -0 0 0 0 0 0 0 0 0 0 0 0 -0 0 0 0 0 0 0 -0 0 -0 -0 0 0 -0 0 0 -0 -0 0 0 0 -0 0 -0 0 -0 -0 -0 0 -0 nan
nan -0 0 0 -0 -0 0 0 0 0 -0 0 -0 0 0 0 0 0 0 0 0 0 1 -0 -0 -0 -0 0 0 0 -0 0 -0 -0 -0 -0 -0 0 -0 -0 -0 -0 -0 nan
nan -0 -0 -0 0 0 0 0 0 0 0 -0 0 0 0 0 0 0 0 0 0 0 0 -0 -0 -0 -0 -0 -0 -0 -0 -0 -0 -0 -0 0 0 0 -0 -0 -0 -0 -1 nan
nan 0 0 0 0 0 0 0 0 0 0 0 -0 -0 0 0 0 0 0 0 0 0 0 0 -0 -0 0 -0 0 -1 -0 -0 0 0 0 1 0 0 0 -0 -0 -0 -0 nan
nan 0 0 0 0 0 0 0 0 0 0 0 -0 -0 -0 0 0 0 0 0 0 0 0 0 0 0 0 -0 -0 0 1 1 0 0 0 0 0 0 -0 -0 -0 -0 -0 nan
nan 0 0 0 0 0 0 0 0 0 0 0 -0 -0 -0 0 0 0 0 0 0 0 0 0 0 0 0 -0 -0 0 0 -0 0 0 0 -0 -0 -0 -0 -0 -0 -0 -0 nan
nan 0 -0 0 0 -0 -0 0 0 0 0 -0 -0 -0 -0 0 0 0 0 0 0 0 0 0 0 -0 0 0 -0 -0 -0 -0 -0 -0 -0 0 -0 -0 -0 -0 -0 -1 -1 nan
nan 0 -0 -0 0 0 0 0 0 0 0 0 -0 -0 0 0 0 0 0 0 0 0 -0 0 0 0 1 -0 -0 -0 -0 -0 -0 -0 -0 -0 -0 -0 -0 -0 -0 -0 -0 nan
nan 0 -0 -0 0 0 -0 -0 0 -0 -0 0 -0 0 -0 -0 0 0 0 0 0 -0 -0 0 0 1 -0 0 -0 -0 -0 -0 -0 -0 -0 -0 -0 -0 -0 -0 -0 -0 -0 nan
nan 0 -0 -0 0 -0 0 0 -0 0 -0 0 0 0 -0 0 -0 -0 0 -0 -0 0 0 -0 0 0 0 0 -0 -0 -0 -0 -0 -0 -0 -0 -0 -0 -0 -0 -0 -0 -0 nan
nan 0 0 0 0 -0 0 0 -0 -0 0 0 -0 0 0 0 0 0 -0 -0 0 -0 0 0 0 0 0 0 -0 -0 0 -0 -0 -0 -0 -0 -0 0 -0 -0 -0 -0 -1 nan
nan 0 0 0 0 0 0 -0 -0 0 0 0 0 -0 0 0 0 0 -0 0 -0 0 0 0 -0 -0 -0 -0 -0 -0 -0 -0 -0 -0 -0 -0 -0 -0 0 0 -0 -0 -0 nan
nan 0 1 0 -0 -0 0 0 -0 0 0 0 0 -0 0 -0 -0 0 -0 0 0 -0 0 -0 0 -0 -0 -0 -0 -0 -0 -0 -0 -0 -0 -0 -0 -1 -0 -0 -0 -0 -0 nan
nan -0 -0 0 -0 0 0 0 0 0 0 0 0 -0 -0 -0 -0 -0 0 -0 0 0 0 0 -0 -0 -0 -0 -0 -0 -0 -0 -0 -0 -0 -0 -0 -0 -1 -1 -0 -0 -0 nan
nan nan nan nan nan nan nan nan nan nan nan nan nan nan nan nan nan nan nan nan nan nan nan nan nan nan nan nan nan nan nan nan nan nan nan nan nan nan nan nan nan nan nan nan
Wind_Speed
7 4 7 8 5 7 10 10 3 13 23 9 6 11 6 4 9 12 4 1 4 7 7 6 5 8 4 3 9 8 6 4 5 10 1 2 3 6 6 4 5 3 1 12
9 10 8 9 12 6 10 9 4 10 23 7 9 3 11 5 11 7 7 8 6 5 7 3 6 6 4 5 2 5 5 4 2 1 3 2 4 4 4 2 3 12 4 8
12 8 10 9 8 9 11 5 2 2 4 2 1 3 3 7 3 4 1 1 2 4 5 5 3 7 4 4 7 5 0 4 7 13 3 4 4 5 5 8 8 11 20 21
15 15 12 9 10 9 10 2 1 3 2 2 2 2 2 3 2 3 7 4 2 2 6 9 8 3 3 8 8 4 3 6 5 9 4 4 6 6 7 10 11 10 17 11
14 17 16 14 11 11 13 4 2 4 3 3 3 3 2 2 3 3 3 4 3 5 3 3 3 2 3 2 5 3 3 5 4 11 2 5 8 7 8 13 14 16 19 19
16 15 17 17 17 13 5 8 7 6 2 2 2 2 3 4 2 4 6 4 3 7 3 2 1 1 1 0 1 0 1 1 2 5 4 4 8 3 5 4 9 3 1 6
17 17 17 18 20 20 7 14 11 5 3 2 3 3 3 3 3 3 3 5 3 2 2 3 4 7 8 10 8 7 1 1 2 2 2 5 4 4 9 13 10 7 5 9
11 15 19 18 19 21 19 14 7 4 2 5 5 8 4 7 3 2 4 3 3 3 2 2 3 1 1 5 6 11 10 1 2 3 3 1 1 4 2 2 4 6 6 7
11 13 16 24 19 18 25 16 16 5 9 5 6 8 7 3 3 4 4 3 4 2 2 2 2 2 2 1 1 4 7 6 2 2 3 4 3 2 7 4 4 1 8 10
8 7 12 14 15 15 24 15 12 7 4 5 11 3 6 7 4 2 3 3 4 7 2 1 2 3 1 3 3 3 3 3 7 6 4 2 5 4 5 4 4 13 14 13
7 5 3 8 14 14 16 17 17 13 6 5 8 7 9 7 7 4 7 3 2 3 3 2 3 3 3 0 3 3 5 4 3 2 2 6 5 2 4 4 16 15 14 17
6 7 5 11 13 18 14 11 14 16 8 6 12 12 10 8 5 6 13 2 5 7 2 1 2 2 0 3 2 1 3 4 3 6 3 5 6 4 7 9 9 11 13 18
6 7 7 4 16 16 17 15 14 18 12 6 9 11 12 15 13 14 8 6 7 6 5 6 2 3 3 3 4 1 4 4 2 3 1 5 11 12 8 18 19 15 18 21
6 7 7 5 2 8 15 14 17 15 5 3 1 6 9 14 18 21 21 16 10 8 11 4 3 2 7 3 1 3 5 5 3 4 6 7 14 7 17 16 15 20 22 21
4 7 9 7 7 6 7 13 11 16 5 4 2 4 7 9 9 11 16 21 16 11 6 3 3 4 3 1 1 4 9 5 4 5 7 5 15 8 17 19 16 14 17 21
2 5 7 9 10 11 11 4 7 10 10 2 1 3 4 7 7 8 10 14 17 12 5 3 5 6 5 3 3 4 10 13 13 6 11 16 19 16 9 12 16 16 17 18
3 4 8 12 12 12 4 3 5 13 13 2 2 2 1 2 4 5 8 11 7 6 6 5 5 5 8 2 4 6 7 7 10 14 14 9 4 5 14 13 14 14 12 13
6 10 12 16 13 11 5 5 9 12 5 4 2 3 0 4 3 3 7 6 6 5 4 4 3 2 2 3 11 4 4 5 5 5 6 9 11 10 12 12 12 11 12 15
8 9 10 8 5 3 3 6 7 8 4 4 3 3 3 6 3 3 3 3 1 2 2 4 7 3 5 3 3 2 4 2 4 7 7 5 7 8 8 8 9 11 13 15
8 8 2 3 6 9 7 4 3 6 3 5 3 4 1 5 3 2 3 1 2 2 4 8 3 4 3 4 3 4 5 5 6 6 3 6 6 8 9 9 10 12 13 15
9 3 2 9 8 7 2 1 1 1 2 3 1 4 2 6 3 4 6 2 1 1 4 4 2 3 3 5 4 4 4 4 5 5 5 7 9 12 13 13 12 13 14 16
9 4 8 8 3 2 2 1 2 2 3 0 2 2 3 4 4 3 4 3 2 5 3 2 2 2 5 4 4 4 4 4 5 7 9 11 12 14 15 17 18 18 18 18
12 4 4 3 2 3 5 4 3 1 1 0 2 1 2 3 4 2 2 3 5 6 1 3 2 3 3 4 5 5 7 9 11 12 13 15 16 16 17 18 18 20 22 20
4 5 3 4 2 4 4 3 3 3 3 3 1 1 2 3 2 2 2 1 2 1 1 2 2 4 5 7 10 13 14 14 16 17 18 18 18 19 20 21 22 24 26 25
3 3 4 3 3 3 5 8 6 3 3 2 1 1 1 1 1 2 1 1 2 1 2 2 2 7 10 14 16 19 20 20 20 20 21 22 23 24 26 24 25 25 26 27
1 2 3 4 3 2 4 5 4 2 2 2 1 1 2 2 0 2 1 1 3 2 1 3 11 14 16 19 21 22 23 22 22 22 23 24 24 25 27 28 27 26 27 28
2 2 4 4 4 4 4 3 3 1 3 2 2 3 5 1 2 1 0 3 1 2 11 16 17 19 20 20 21 21 22 24 24 24 23 24 24 25 27 29 27 26 27 28
Wind_Direction
250 230 234 239 147 186 186 178 190 164 179 179 201 222 198 235 203 221 232 128 205 191 178 180 217 206 248 197 150 160 213 158 191 206 214 198 212 207 163 185 226 229 165 261
258 235 210 213 240 240 184 169 138 175 189 203 206 195 211 204 197 197 192 211 200 196 191 218 192 199 51 40 118 154 186 217 301 310 4 359 211 208 210 109 106 233 220 258
231 221 201 199 205 213 201 187 154 171 256 63 72 187 191 180 41 79 48 126 134 165 214 242 233 201 38 57 44 3 83 225 201 247 184 111 174 198 208 212 244 257 244 276
240 227 198 195 201 202 184 191 121 140 175 202 128 68 91 106 114 62 32 62 357 172 222 215 221 52 60 65 10 40 31 251 207 261 226 214 203 203 197 213 234 232 267 264
245 227 215 210 186 184 178 150 168 121 97 103 96 78 63 90 98 56 58 90 74 36 91 35 70 46 42 48 17 52 23 275 7 280 265 256 277 275 256 243 255 259 265 269
266 247 225 223 209 186 163 147 144 118 97 74 81 38 66 74 85 63 70 109 96 80 69 67 56 358 300 6 25 85 290 303 81 285 35 16 281 325 275 139 44 354 293 7
268 228 228 218 219 202 197 172 157 147 140 129 112 126 99 92 70 90 77 108 87 133 104 311 272 251 242 241 232 225 236 199 172 255 95 226 121 19 68 100 88 67 47 345
260 254 268 220 223 216 198 181 169 150 121 147 132 168 150 162 143 121 120 115 106 140 79 51 36 54 230 230 223 211 211 187 246 249 208 10 117 51 18 305 154 14 347 330
261 237 222 220 223 225 213 197 189 137 126 222 144 155 176 142 167 159 139 167 213 154 71 66 116 206 235 295 229 179 189 219 239 208 235 237 140 209 320 220 215 333 358 329
254 258 213 204 210 217 209 214 205 149 125 144 161 158 170 172 141 108 126 161 171 196 166 162 174 242 225 213 215 186 164 189 224 246 267 275 142 262 266 58 280 322 331 321
258 250 231 213 203 208 211 220 213 197 153 172 190 161 141 147 164 146 157 128 183 160 180 161 215 204 220 133 242 188 181 169 210 149 220 250 187 227 130 226 295 302 325 327
238 231 246 215 211 202 205 197 193 212 202 182 209 208 189 180 189 179 181 203 158 169 117 154 121 214 228 176 246 0 248 197 197 187 205 122 187 191 318 326 291 303 308 318
238 222 230 233 199 180 199 195 188 204 206 184 212 226 232 234 223 212 203 215 200 186 181 158 164 203 131 181 237 228 253 187 198 61 237 170 322 321 324 318 310 302 311 317
229 222 224 218 171 193 199 188 198 205 135 145 200 221 228 230 233 229 228 236 208 218 203 165 160 193 196 208 178 191 210 151 172 278 297 318 286 272 310 304 296 302 304 312
211 210 208 202 200 181 187 199 201 191 182 169 179 185 231 248 237 231 226 223 224 199 178 162 204 180 145 59 45 252 181 179 165 222 221 241 279 300 300 299 303 311 317 318
140 169 175 171 180 164 138 139 177 180 195 201 348 222 234 234 229 216 212 215 222 211 179 179 185 183 187 159 211 257 192 206 225 243 280 281 294 302 289 309 315 319 325 320
114 165 169 165 164 165 113 105 167 186 200 189 335 336 24 195 149 168 183 199 200 191 173 182 167 191 181 143 223 162 176 225 255 264 274 287 281 284 304 313 318 323 328 333
75 147 151 154 164 165 138 103 119 174 168 179 101 271 251 158 165 167 179 181 177 171 160 152 183 183 195 243 243 269 280 291 252 254 283 279 290 301 311 317 321 329 337 337
121 115 105 98 90 80 98 135 136 167 194 165 149 149 239 165 138 137 160 165 114 181 186 200 158 167 225 260 22 337 321 317 294 300 300 292 305 320 328 332 331 341 347 345
153 151 98 99 118 123 126 124 174 200 210 211 189 184 193 153 159 158 137 166 188 175 229 154 216 231 219 329 313 315 322 323 324 330 290 317 332 341 345 346 343 338 339 337
157 162 94 127 149 174 111 90 118 299 335 185 169 197 158 190 152 183 201 183 189 154 249 163 223 252 12 38 45 45 38 30 21 13 356 340 330 327 325 324 324 323 323 325
179 156 120 144 178 94 112 253 333 183 237 133 145 170 211 179 187 143 183 180 161 246 143 116 252 293 32 40 41 38 20 359 340 331 323 317 311 309 306 308 310 310 309 312
176 166 152 160 188 50 144 217 290 273 181 54 145 181 177 176 195 208 135 185 222 127 124 220 234 335 8 10 356 341 334 326 321 316 311 307 305 304 302 302 305 306 305 309
179 167 210 173 252 237 184 175 171 137 146 142 118 184 172 173 173 216 242 195 145 211 320 240 256 334 349 339 331 321 317 316 313 312 310 308 306 303 302 302 303 302 303 305
232 202 220 196 125 89 125 126 127 117 145 134 138 290 211 303 251 195 308 219 261 137 210 226 343 332 318 315 317 315 312 310 307 306 305 304 305 305 303 303 301 303 302 300
219 90 90 126 95 106 143 146 145 113 147 145 129 87 70 281 343 14 185 87 222 223 129 319 320 317 314 312 310 307 306 305 304 305 304 303 303 304 302 301 303 304 300 296
76 48 98 107 76 134 148 140 159 175 152 155 113 143 215 10 42 309 250 185 129 3 310 313 315 316 316 312 306 307 307 305 304 304 304 304 306 305 302 303 308 306 301 297
Height
1455 1454 1455 1458 1455 1459 1462 1468 1470 1471 1477 1482 1478 1475 1477 1479 1480 1481 1485 1486 1488 1489 1489 1492 1496 1492 1490 1487 1487 1495 1494 1502 1511 1502 1500 1501 1503 1503 1505 1510 1510 1522 1525 1474
1452 1453 1456 1457 1458 1461 1465 1466 1467 1468 1471 1468 1467 1470 1471 1474 1477 1479 1481 1484 1484 1485 1487 1489 1488 1487 1487 1486 1487 1490 1492 1496 1507 1499 1503 1501 1501 1500 1497 1498 1501 1493 1509 1473
1449 1453 1455 1456 1458 1461 1465 1466 1466 1467 1468 1468 1467 1466 1468 1470 1476 1478 1480 1480 1482 1483 1484 1482 1482 1485 1489 1487 1490 1491 1490 1490 1487 1479 1486 1490 1496 1497 1497 1494 1492 1483 1470 1469
1447 1451 1453 1455 1458 1460 1463 1465 1465 1465 1468 1470 1469 1470 1473 1473 1475 1479 1479 1482 1484 1482 1481 1480 1481 1488 1490 1491 1492 1491 1494 1489 1486 1478 1482 1485 1486 1487 1491 1492 1488 1487 1466 1475
1444 1446 1450 1454 1456 1458 1460 1464 1467 1468 1469 1469 1470 1471 1474 1474 1478 1480 1481 1482 1486 1486 1487 1490 1491 1492 1493 1494 1495 1496 1497 1488 1491 1479 1483 1484 1484 1485 1485 1482 1482 1478 1477 1476
1441 1444 1447 1451 1454 1457 1458 1461 1465 1466 1469 1470 1471 1474 1476 1478 1479 1483 1484 1485 1485 1488 1492 1493 1494 1495 1496 1498 1499 1498 1499 1497 1496 1489 1488 1490 1487 1485 1479 1478 1494 1489 1485 1501
1439 1441 1445 1447 1451 1453 1457 1458 1462 1466 1470 1471 1473 1477 1477 1479 1481 1482 1485 1486 1487 1493 1492 1493 1493 1494 1495 1497 1497 1499 1498 1497 1496 1493 1494 1489 1492 1491 1487 1490 1496 1498 1499 1497
1437 1440 1442 1445 1447 1450 1454 1457 1460 1462 1470 1469 1472 1477 1478 1480 1481 1484 1486 1488 1489 1490 1492 1494 1495 1494 1494 1491 1492 1494 1498 1498 1496 1493 1487 1484 1491 1493 1492 1490 1494 1496 1493 1490
1435 1437 1438 1441 1445 1447 1450 1454 1457 1461 1464 1470 1468 1474 1477 1479 1481 1483 1485 1487 1489 1490 1493 1497 1504 1498 1489 1490 1489 1491 1494 1497 1497 1493 1487 1482 1491 1493 1490 1490 1485 1488 1488 1487
1433 1434 1436 1439 1441 1444 1447 1451 1456 1459 1463 1466 1468 1471 1473 1477 1480 1483 1484 1487 1489 1489 1492 1498 1500 1498 1491 1496 1489 1491 1489 1492 1493 1491 1486 1485 1488 1489 1488 1495 1492 1483 1484 1485
1432 1433 1436 1437 1441 1444 1447 1450 1453 1459 1462 1465 1467 1470 1472 1475 1477 1481 1484 1487 1488 1489 1491 1496 1495 1497 1493 1496 1491 1488 1489 1491 1495 1496 1498 1492 1483 1485 1490 1487 1483 1482 1481 1480
1431 1433 1435 1436 1439 1442 1445 1448 1451 1456 1461 1464 1466 1468 1471 1472 1475 1478 1481 1480 1480 1483 1489 1495 1493 1495 1500 1496 1494 1487 1490 1483 1484 1483 1483 1480 1480 1481 1482 1482 1482 1480 1478 1476
1431 1433 1434 1435 1437 1439 1443 1447 1450 1454 1459 1462 1463 1465 1468 1469 1472 1476 1478 1478 1479 1480 1481 1485 1490 1495 1493 1497 1495 1491 1482 1479 1482 1481 1479 1479 1477 1480 1479 1479 1478 1476 1473 1471
1430 1431 1433 1435 1436 1439 1442 1445 1448 1452 1457 1459 1461 1461 1462 1465 1467 1469 1471 1473 1475 1478 1481 1482 1485 1489 1484 1488 1483 1486 1479 1478 1478 1479 1476 1475 1475 1476 1476 1473 1473 1472 1468 1465
1429 1431 1433 1436 1438 1440 1442 1444 1446 1450 1457 1458 1459 1459 1460 1461 1463 1464 1466 1470 1472 1475 1476 1477 1482 1479 1482 1484 1483 1481 1472 1472 1476 1476 1472 1474 1471 1471 1470 1469 1467 1466 1462 1459
1430 1431 1433 1435 1436 1439 1442 1445 1448 1450 1453 1458 1461 1459 1457 1458 1459 1461 1463 1466 1469 1470 1470 1472 1472 1474 1478 1481 1485 1463 1463 1464 1467 1469 1468 1468 1466 1465 1463 1463 1464 1461 1457 1455
1432 1433 1434 1436 1439 1441 1444 1446 1447 1449 1453 1456 1458 1457 1457 1456 1458 1460 1462 1464 1466 1468 1469 1470 1471 1472 1473 1476 1478 1461 1462 1464 1465 1464 1464 1462 1462 1462 1461 1460 1459 1456 1454 1452
1434 1435 1434 1437 1440 1443 1445 1446 1448 1450 1453 1455 1459 1457 1457 1457 1458 1460 1462 1463 1465 1466 1467 1469 1470 1471 1470 1469 1456 1457 1459 1460 1460 1460 1460 1459 1459 1458 1457 1456 1454 1452 1449 1447
1438 1438 1439 1441 1443 1444 1446 1447 1449 1452 1456 1454 1456 1461 1462 1458 1458 1460 1462 1462 1464 1465 1464 1466 1468 1468 1464 1455 1456 1457 1458 1458 1457 1457 1457 1457 1456 1455 1454 1452 1451 1449 1446 1445
1439 1441 1442 1443 1446 1447 1448 1449 1450 1451 1451 1452 1452 1454 1457 1458 1459 1460 1462 1462 1464 1472 1461 1462 1461 1457 1457 1457 1457 1457 1456 1456 1456 1455 1455 1455 1454 1453 1452 1451 1450 1448 1446 1443
1440 1441 1443 1445 1447 1448 1449 1450 1452 1452 1452 1450 1451 1452 1453 1455 1457 1457 1459 1461 1463 1469 1458 1459 1459 1456 1457 1457 1456 1456 1456 1455 1456 1456 1455 1454 1453 1452 1450 1449 1448 1446 1443 1441
1441 1442 1443 1446 1447 1449 1451 1452 1453 1451 1451 1450 1450 1451 1452 1453 1453 1454 1456 1457 1459 1460 1455 1459 1460 1461 1459 1458 1457 1457 1457 1456 1456 1455 1454 1452 1451 1449 1447 1446 1444 1442 1440 1438
1440 1442 1443 1444 1447 1453 1455 1462 1456 1455 1448 1449 1449 1450 1451 1451 1452 1452 1454 1456 1456 1452 1455 1454 1465 1460 1459 1459 1458 1457 1456 1455 1453 1452 1450 1449 1447 1446 1444 1441 1440 1437 1435 1434
1438 1439 1443 1443 1449 1445 1443 1444 1445 1446 1447 1448 1448 1448 1449 1449 1450 1449 1448 1447 1449 1451 1461 1463 1462 1460 1459 1458 1457 1455 1453 1452 1450 1448 1446 1444 1442 1440 1438 1437 1435 1432 1429 1427
1437 1437 1438 1441 1440 1440 1441 1442 1444 1446 1446 1447 1448 1448 1449 1449 1450 1448 1448 1448 1453 1459 1462 1461 1460 1459 1458 1456 1454 1452 1450 1447 1445 1443 1440 1438 1436 1433 1430 1429 1427 1425 1422 1419
1436 1437 1439 1439 1440 1443 1443 1444 1444 1445 1446 1447 1448 1449 1451 1451 1451 1451 1451 1456 1459 1461 1458 1459 1458 1456 1454 1452 1449 1447 1444 1441 1439 1437 1434 1431 1429 1426 1423 1420 1419 1417 1414 1411
1436 1438 1439 1439 1440 1441 1443 1444 1445 1445 1446 1447 1448 1451 1449 1453 1457 1457 1456 1459 1457 1457 1457 1456 1454 1452 1449 1447 1444 1441 1438 1435 1432 1430 1427 1425 1422 1419 1416 1412 1410 1408 1405 1402